www.pogodaiklimat.ru

Погода и климат >> Архив погоды >> Малайзия >> Тавау


ПОГОДА в Тавау

  • Прогноз погоды в Тавау
  • Монитор погоды в Тавау

АРХИВ ПОГОДЫ в Тавау

Время (UTC), дата Ветер
(напр.,м/с)
 
Видим.   Явления Облачность Т
(С)
Тd
(С)
f
(%)
Тe
(С)
Тes
(С)
Комфортность P
(гПа)
Po
(гПа)
Тmin
(С)
Tmax
(С)
R
(мм)
R24
(мм)
S
(см)
00 13.08 штиль 0 9000 м гроза без осадков 9/5 <50 м
[Cb cap Ac As]
+25.1 +24.1 94 +35 +36 очень
душно
1011.8 1009.9 +24.4 4
03 13.08 З 3 12 км в посл. час дождь 9/4 300 м
[Cu Sc Ac lent Ci sp]
+26.8 +24.3 86 +37 +44 очень
душно
1011.5 1009.6
06 13.08 Ю 5 12 км 8/3 500 м
[Cu Sc Ac lent Ci sp]
+31.3 +26.1 74 +47 +51 опасность
перегрева
1008.5 1006.6 2
09 13.08 Ю 3 12 км 9/1 500 м
[Cu Sc Ac lent Ci fib]
+29.7 +25.1 76 +43 +44 опасность
перегрева
1009.1 1007.2
12 13.08 С 1 12 км 8/1 500 м
[Cu Sc Ac lent Ci fib]
+26.5 +25.0 91 +38 +38 очень
душно
1010.4 1008.5 +31.8
15 13.08 штиль 0 12 км 6/1 500 м
[Cu Sc Ac lent Ci fib]
+25.2 +24.3 95 +35 +35 очень
душно
1012.3 1010.4
18 13.08 СЗ 2 15 км 6/3 500 м
[Cu Sc Ac trans Ci sp]
+24.4 +23.7 96 +33 +33 очень
душно
1010.9 1009.0
21 13.08 С 1 15 км 8/3 500 м
[Cu Sc Ac lent Ci sp]
+24.0 +23.3 96 +32 +32 очень
душно
1011.0 1009.1
00 14.08 штиль 0 10 км мгла 8/3 50 м
[Cu Sc Ac lent Ci sp]
+26.2 +25.0 93 +37 +40 очень
душно
1012.5 1010.6 +23.9 2
03 14.08 Ю 3 9000 м мгла 8/3 500 м
[Cu Sc Ac lent Ci sp]
+30.8 +25.0 71 +44 +51 опасность
перегрева
1011.7 1009.8
06 14.08 Ю 6 9000 м мгла 9/4 500 м
[Cu Sc Ac lent Ci sp]
+30.4 +25.6 76 +45 +48 опасность
перегрева
1009.6 1007.7
09 14.08 Ю 2 10 км мгла 6/1 500 м
[Cu Sc Ac lent Ci fib]
+29.5 +24.4 74 +41 +43 опасность
перегрева
1008.6 1006.7
12 14.08 штиль 0 10 км мгла 8/3 500 м
[Cu Sc Ac lent Ci sp]
+26.3 +24.3 89 +37 +37 очень
душно
1010.4 1008.5 +31.6
15 14.08 СЗ 3 10 км мгла 8/1 500 м
[Cu Sc Ac lent Ci fib]
+25.0 +23.8 93 +34 +34 очень
душно
1012.4 1010.5
18 14.08 СЗ 1 10 км мгла 8/1 500 м
[Cu Sc Ac lent Ci fib]
+24.2 +23.0 93 +32 +32 очень
душно
1011.3 1009.4
21 14.08 СЗ 2 10 км мгла 8/3 500 м
[Cu Sc Ac lent Ci fib]
+23.8 +22.9 95 +32 +32 очень
душно
1011.2 1009.3
00 15.08 штиль 0 10 км мгла 9/3 50 м
[Cu Sc Ac lent Ci sp]
+27.6 +25.3 87 +40 +43 очень
душно
1012.7 1010.8 +23.8
03 15.08 Ю 4 9000 м осадки на расстоянии 8/4 480 м
[Cb cap Ac lent Ci fib]
+31.5 +24.9 68 +45 +50 опасность
перегрева
1011.9 1010.0
06 15.08 Ю 5 10 км мгла 8/4 500 м
[Cu Sc Ac lent Ci fib]
+31.7 +25.0 68 +45 +49 опасность
перегрева
1010.1 1008.2
09 15.08 ЮВ 3 10 км мгла 8/1 500 м
[Cu Sc Ac trans Ci fib]
+29.8 +24.1 72 +42 +43 опасность
перегрева
1008.9 1007.0
12 15.08 СЗ 1 10 км мгла 6/1 500 м
[Cu Sc Ac lent Ci fib]
+26.5 +24.3 88 +37 +37 очень
душно
1010.5 1008.6 +32.2
15 15.08 штиль 0 10 км мгла 6/1 500 м
[Cu Sc Ac lent Ci fib]
+25.1 +23.8 93 +34 +34 очень
душно
1012.1 1010.2
18 15.08 С 2 10 км мгла 6/1 500 м
[Cu Sc Ac lent Ci fib]
+24.2 +23.3 95 +32 +32 очень
душно
1011.1 1009.2
21 15.08 СЗ 1 10 км мгла 8/4 500 м
[Cu Sc Ac lent Ci fib]
+24.5 +23.4 94 +33 +33 очень
душно
1011.2 1009.3
00 16.08 З 5 10 км в посл. час дождь 9/4 1000 м
[Cu Sc Ac lent Ci fib]
+25.8 +23.3 86 +35 +36 очень
душно
1013.0 1011.1 +23.7 8
03 16.08 Ю 3 10 км мгла 8/3 500 м
[Cu Sc Ac lent Ci sp]
+30.3 +23.7 68 +41 +49 опасность
перегрева
1012.4 1010.5
06 16.08 Ю 4 10 км мгла 6/3 500 м
[Cu Sc Ac trans Ci sp]
+31.3 +24.3 66 +43 +50 опасность
перегрева
1010.1 1008.2
09 16.08 Ю 3 10 км мгла 6/3 500 м
[Cu Sc Ac lent Ci fib]
+30.0 +23.7 69 +41 +42 опасность
перегрева
1008.9 1007.0
12 16.08 штиль 0 11 км мгла 5/1 500 м
[Cu Sc Ac trans Ci fib]
+26.1 +24.3 90 +36 +36 очень
душно
1010.8 1008.9 +31.5
15 16.08 штиль 0 10 км мгла 6/1 500 м
[Cu Sc Ac trans Ci fib]
+24.4 +23.1 92 +32 +32 очень
душно
1012.0 1010.1
18 16.08 СЗ 2 10 км мгла 8/3 500 м
[Cu Sc Ac lent Ci fib]
+23.4 +22.3 94 +32 +32 очень
душно
1011.7 1009.8
21 16.08 СЗ 2 10 км мгла 8/3 500 м
[Cu Sc Ac lent Ci fib]
+22.9 +21.8 94 +31 +31 очень
душно
1011.7 1009.8
00 17.08 С 1 12 км мгла 8/3 50 м
[Cu Sc Ac lent Ci fib]
+26.6 +24.5 88 +37 +40 очень
душно
1012.8 1010.9 +22.9
03 17.08 ЮВ 3 12 км мгла 6/4 480 м
[Cb cap Ac trans Ci sp]
+31.1 +23.7 65 +42 +51 опасность
перегрева
1012.3 1010.4
06 17.08 Ю 4 9000 м осадки на расстоянии 6/4 480 м
[Cb cap Ac lent Ci fib]
+30.8 +25.2 72 +45 +50 опасность
перегрева
1010.4 1008.5
09 17.08 ЮВ 3 10 км мгла 8/3 500 м
[Cu Sc Ac lent Ci fib]
+29.5 +24.3 74 +41 +42 опасность
перегрева
1009.2 1007.3
12 17.08 С 2 10 км мгла 8/3 500 м
[Cu Sc Ac lent Ci fib]
+25.6 +23.1 86 +34 +34 очень
душно
1011.2 1009.3 +31.7
15 17.08 СЗ 2 10 км мгла 6/3 500 м
[Cu Sc Ac lent Ci fib]
+24.8 +23.5 92 +33 +33 очень
душно
1012.8 1010.9
18 17.08 СЗ 1 10 км мгла 9/3 500 м
[Cu Sc Ac lent Ci sp]
+24.5 +23.4 94 +33 +33 очень
душно
1011.9 1010.0
21 17.08 СЗ 2 10 км мгла 9/3 500 м
[Cu Sc Ac lent Ci sp]
+24.2 +23.4 95 +32 +32 очень
душно
1011.6 1009.7
00 18.08 ЮЗ 1 10 км мгла 9/3 50 м
[Cu Sc Ac lent Ci sp]
+26.2 +24.1 88 +36 +39 очень
душно
1013.0 1011.1 +24.1
03 18.08 Ю 5 10 км мгла 6/3 500 м
[Cu Sc Ac lent Ci fib]
+30.8 +24.9 71 +44 +50 опасность
перегрева
1012.8 1010.9
06 18.08 Ю 5 10 км мгла 8/3 500 м
[Cu Sc Ac lent Ci fib]
+31.5 +23.9 64 +43 +48 опасность
перегрева
1009.8 1007.9
09 18.08 СЗ 1 10 км осадки на расстоянии 9/3 300 м
[Cu Sc Ac lent Ci sp]
+24.6 +22.9 90 +33 +34 очень
душно
1009.6 1007.7
12 18.08 С 3 12 км 8/3 500 м
[Cu Sc Ac lent Ci sp]
+24.3 +23.0 92 +32 +32 очень
душно
1010.7 1008.8 +31.7 1
15 18.08 СЗ 1 12 км 8/3 500 м
[Cu Sc Ac lent Ci fib]
+23.7 +22.8 95 +31 +31 очень
душно
1012.3 1010.4
18 18.08 СЗ 2 12 км 6/3 500 м
[Cu Sc Ac lent Ci fib]
+23.2 +22.2 94 +32 +32 очень
душно
1010.5 1008.6
21 18.08 штиль 0 12 км 8/3 500 м
[Cu Sc Ac lent Ci fib]
+22.8 +22.1 96 +31 +31 очень
душно
1010.7 1008.8
00 19.08 ЮЗ 2 10 км мгла 8/3 500 м
[Cu Sc Ac lent Ci fib]
+26.4 +23.5 84 +36 +38 очень
душно
1011.7 1009.8 +22.7 1
03 19.08 Ю 5 10 км мгла 6/1 500 м
[Cu hum Ac trans Ci fib]
+31.6 +24.5 66 +44 +51 опасность
перегрева
1010.9 1009.0
06 19.08 Ю 6 12 км мгла 6/3 500 м
[Cu Sc Ac lent Ci fib]
+31.4 +25.1 69 +45 +49 опасность
перегрева
1008.2 1006.3
09 19.08 Ю 5 12 км мгла 6/3 480 м
[Cb cap Ac trans Ci fib]
+29.2 +24.7 77 +42 +42 опасность
перегрева
1007.0 1005.1
12 19.08 СЗ 1 10 км мгла 8/3 500 м
[Cu Sc Ac trans Ci fib]
+26.5 +24.6 89 +37 +37 очень
душно
1009.4 1007.5 +32.0
15 19.08 штиль 0 10 км мгла 6/4 500 м
[Cu Sc Ac trans Ci fib]
+26.5 +25.0 91 +38 +38 очень
душно
1010.8 1008.9
18 19.08 ЮВ 3 10 км мгла 9/5 500 м
[Cu Sc Ac trans Ci fib]
+27.8 +24.6 83 +39 +39 очень
душно
1009.3 1007.4
21 19.08 З 6 1500 м гроза, ливневой дождь 9/4 480 м
[Cb cap Ac As]
+24.0 +23.5 97 +32 +32 очень
душно
1009.6 1007.7

 

Местоположение метеостанции Тавау (Малайзия): широта 4.27 долгота 117.88 высота над уровнем моря 20 м.

В архиве по умолчанию представлена погода в Тавау за последнюю неделю. Архивные данные за месяц целиком и за предыдущие месяцы, начиная с января 2011 года, Вы можете получить, выбрав интересующий диапазон дат из раскрывающегося списка и нажав кнопку "Ввод!".


*Определитесь, кто Вы:
робот инопланетянин человек

Внимание! Время в таблицах - всемирное. Для получения местного времени необходимо прибавить поправку, которая равна 8 ч.

Смотрите также архив погоды в соседних городах и на ближайших метеорологических станциях:

Погода в Таракане (Индонезия) (110 км)
Погода в Танджунгселоре (Индонезия) (169 км)
Погода в Сандакане (Малайзия) (182 км)
Погода в Танджунгредепе (Индонезия) (244 км)
Погода в Лонгбаване (Индонезия) (251 км)
Погода в Кота-Кинабалу (Малайзия) (274 км)
Погода в Лабуане (Малайзия) (313 км)
Погода в Брунее (Бруней) (335 км)
Погода в Мири (Малайзия) (433 км)
Погода в Толи-Толи (Индонезия) (486 км)

Пояснения к столбцам:

Ветер - указаны скорость ветра в м/с - средняя за 10 мин, порывы в срок и между сроками (в фигурных скобках) и направление, откуда дует ветер: С - северный, СВ - северо-восточный, В - восточный, ЮВ - юго-восточный, Ю - южный, ЮЗ - юго-западный, З - западный, СЗ - северо-западный.
Видимость - горизонтальная дальность видимости в метрах или километрах. При видимости от 1 до 10 км при отсутствии осадков обычно наблюдается дымка, при ухудшении видимости до 1 км и менее - туман. В сухую погоду видимость может ухудшаться дымом, пылью или мглою.
Явления - указаны атмосферные явления, наблюдавшиеся в срок или в последний час перед сроком; фигурными скобками обозначены явления, наблюдавшиеся между сроками (за 1-3 часа до срока); квадратными скобками обозначены град или гололедные отложения с указанием их диаметра в мм.
Облачность - указаны через наклонную черту общая и нижняя облачность в баллах и высота нижней границы облаков в метрах; квадратными скобками обозначены формы облаков: Ci - перистые, Cs - перисто-слоистые, Cc - перисто-кучевые, Ac - высококучевые, As - высокослоистые, Sc - слоисто-кучевые, Ns - слоисто-дождевые, Cu - кучевые, Cb - кучево-дождевые. Подробнее классификацию облаков см. в Атласе облаков (PDF).
T - Температура воздуха - температура, измеренная на высоте 2 м над землей.
Td - Температура точки росы - температура, при понижении до которой содержащийся в воздухе водяной пар достигнет насыщения.
f - Относительная влажность воздуха - влажноcть воздуха, измеренная на высоте 2 м над землей.
Te - Эффективная температура - температура, которую ощущает одетый по сезону человек в тени. Характеристика душности погоды. При расчете учитывается влияние влажности воздуха и скорости ветра на теплоощущения человека.
Tes - Эффективная температура на солнце - температура, которую ощущает человек, с поправкой на солнечный нагрев. Характеристика знойности погоды. Зависит от высоты солнца над горизонтом, облачности и скорости ветра. Ночью, в пасмурную погоду, а также при ветре 12 м/с и более поправка равна нулю.
P - Атмосферное давление - приведенное к уровню моря атмосферное давление.
Po - Атмосферное давление - измеренное на уровне метеостанции атмосферное давление.
Tmin - Минимальная температура - минимум температуры воздуха на высоте 2 м над землей.
Tmax - Максимальная температура - максимум температуры воздуха на высоте 2 м над землей.
R - Количество осадков - Количество выпавших осадков за период времени, мм. При наведении курсора мыши на число - период времени, за который выпало указанное количество осадков.
R24 - Количество осадков - Количество выпавших осадков за 24 часа, мм.
S - Снежный покров - Высота снежного покрова, см. При наведении курсора мыши на число - состояние снежного покрова и степень покрытия местности в баллах.